Location: Rounton
(54.4000°N, 1.3500°W)
Time: 13:18:47
(UTC+01:00)

Vanguard 1 - Pass Details

Date: 24 February 2024
Orbit: 653 x 3825 km, 34.2° (Epoch: 22 April)

Event Time Altitude Azimuth Distance (km) Brightness Sun altitude
Rises 01:42:22 0° 272° (W) 7,394 14.3 -42.3°
Enters shadow 01:46:09 - 266° (W) 6,911 14.1 -42.0°
Exits shadow 02:22:50 - 164° (SSE) 6,507 14.0 -38.9°
Sets 02:26:25 0° 157° (SSE) 6,945 14.2 -38.6°
